STARLINK-32318, 61864

Orbit data source: Space-Track

STARLINK-32318, 61864 is a payload satellite owned by SpaceX/Seattle (US) in LEO that was launched on Thu, 07 Nov 2024 UTC via an FALCON 9 launch vehicle from the Air Force Eastern Test Range (AFETR). Payload-class satellites include a variety of spacecraft equipped with specific instruments for various scientific and technological missions. These include communications satellites like Starlink; space stations such as the ISS; scientific satellites like the Hubble; Earth observation satellites from companies like Planet Labs, Umbra, and HawkEye 360; GPS; miniature CubeSats for education and research; and military/defense satellites.

Loading next visibility...
Identifier
61864, 2024-202V
Orbit
LEO
Country
Flag of USUS
Related business
Manufacturer
SpaceX/Seattle
Mission
Operational Commercial Communications
Bus & Motor
STARLINK V2M, Unknown motor
Mass
730 kg wet, ~700 kg dry
Launch date (UTC)
2024-11-07 (1 year ago)
Launch vehicle
FALCON 9
Launch site
Air Force Eastern Test Range (AFETR)
Object type
Payload
Rocket body
Debris
Shape & HBR
Box + 2 Pan, 17.7 m
Radar Cross Section
33.884 m², Large (>1 m²)

Expand to show TLE details & history
Last TLE update: 16 hours ago

TLE from 16 hours ago
0 STARLINK-32318
1 61864U 24202V   26124.91874306 -.00000333  00000-0 -26075-5 0  9994
2 61864  42.9981 280.7385 0000775 296.2089  63.8683 15.27568220 83933
Epoch: 2026-05-04T22:02Z
TLE epoch observation values (Epoch: 2026-05-04T22:02:59.400Z)
Latitude
-0°
Longitude
87.18995°
Altitude
482.625 km
Speed
7.626 km/s
True Right ascension
18h 42m 57s
True Declination
0° 00' 00"
Sunlit
Object was in full shadow at epoch
Visualization orbit readout
Latitude
Unknown
Longitude
Unknown
Altitude
Unknown
Speed
Unknown
Apparent Right ascension
Unknown
Apparent Declination
Unknown
Sunlit
N/A
Visualization observer readout
Local Sidereal Time
21:43:58
Azimuth
Unknown
Elevation
Unknown
Doppler factor
Unknown
Orbital elements
Apogee altitude
485.562 km
Perigee altitude
484.498 km
Semi-major axis
6,863.167 km
Eccentricity
0.00008
Inclination
42.9981°
RAAN
280.7385°
Arg. of periapsis
296.2089°
True anomaly
63.87627°
Mean anomaly
63.8683°
Eccentric anomaly
63.87229°
Mean motion
3.8173 °/min
Orbital period
94.31 mins
BSTAR
-0.0000026075
Loading maneuver chart data...
Computing Atmospheric mass density...
Loading historical data...
Loading historical data...
Loading historical data...
Loading historical data...
Loading historical data...
Loading historical data...
Loading historical data...

Documentation

Showing up to 5 results
|